| time (UTC) | temp F | wind direction | speed MPH | gust MPH | rain 1hr in | rain 24hr in | rain mn in | humidity % | barometer mb |
| 20260507184541 | 50 | 238 | 7.0 | 15.0 | 0.01 | 0.99 | 0.98 | 94 | 1002.1 |
| 20260507183038 | 55 | 238 | 5.0 | 8.0 | 0.03 | 0.99 | 0.98 | 93 | 1002.1 |
| 20260507181538 | 54 | 207 | 1.0 | 6.0 | 0.08 | 0.99 | 0.98 | 95 | 1001.4 |
| 20260507180050 | 53 | 80 | 4.0 | 8.0 | 0.10 | 0.99 | 0.98 | 95 | 1001.0 |
| 20260507174539 | 53 | 98 | 4.0 | 8.0 | 0.11 | 0.97 | 0.96 | 95 | 1001.4 |
| 20260507173046 | 53 | 124 | 3.0 | 8.0 | 0.14 | 0.95 | 0.94 | 95 | 1002.1 |
| 20260507171541 | 53 | 111 | 4.0 | 8.0 | 0.14 | 0.90 | 0.89 | 95 | 1002.4 |
| 20260507170039 | 52 | 122 | 4.0 | 8.0 | 0.19 | 0.88 | 0.88 | 95 | 1001.9 |
| 20260507164550 | 52 | 129 | 3.0 | 7.0 | 0.21 | 0.86 | 0.85 | 95 | 1002.6 |
| 20260507163038 | 53 | 179 | 2.0 | 7.0 | 0.21 | 0.79 | 0.78 | 95 | 1003.3 |
| 20260507161540 | 53 | 152 | 3.0 | 5.0 | 0.24 | 0.75 | 0.74 | 95 | 1003.6 |
| 20260507160040 | 53 | 150 | 1.0 | 6.0 | 0.27 | 0.69 | 0.68 | 95 | 1003.6 |
| 20260507154550 | 53 | 175 | 3.0 | 6.0 | 0.30 | 0.64 | 0.63 | 95 | 1004.2 |
| 20260507153038 | 53 | 195 | 2.0 | 7.0 | 0.36 | 0.57 | 0.56 | 95 | 1003.8 |
| 20260507151539 | 54 | 153 | 1.0 | 4.0 | 0.37 | 0.50 | 0.49 | 95 | 1004.2 |
| 20260507150043 | 54 | 233 | 2.0 | 8.0 | 0.27 | 0.40 | 0.40 | 95 | 1005.0 |
| 20260507144540 | 54 | 262 | 3.0 | 14.0 | 0.19 | 0.33 | 0.32 | 94 | 1004.9 |
| 20260507143039 | 54 | 225 | 5.0 | 14.0 | 0.07 | 0.21 | 0.20 | 94 | 1004.7 |
| 20260507141542 | 54 | 206 | 10.0 | 18.0 | 0.00 | 0.13 | 0.12 | 93 | 1004.4 |
| 20260507140045 | 55 | 245 | 8.0 | 17.0 | 0.00 | 0.13 | 0.12 | 93 | 1003.8 |
| 20260507134541 | 55 | 159 | 7.0 | 15.0 | 0.00 | 0.13 | 0.12 | 93 | 1003.7 |
| 20260507133055 | 55 | 146 | 8.0 | 18.0 | 0.00 | 0.13 | 0.12 | 93 | 1004.1 |
| 20260507131548 | 55 | 185 | 7.0 | 19.0 | 0.00 | 0.13 | 0.12 | 92 | 1004.4 |
| 20260507130054 | 55 | 164 | 8.0 | 17.0 | 0.00 | 0.13 | 0.12 | 92 | 1004.8 |
| 20260507124537 | 55 | 123 | 8.0 | 17.0 | 0.00 | 0.13 | 0.12 | 92 | 1005.0 |
| 20260507123040 | 55 | 175 | 10.0 | 19.0 | 0.00 | 0.13 | 0.12 | 92 | 1005.2 |
| 20260507121538 | 55 | 141 | 10.0 | 17.0 | 0.00 | 0.13 | 0.12 | 93 | 1005.1 |
| 20260507120051 | 55 | 153 | 8.0 | 17.0 | 0.00 | 0.13 | 0.12 | 93 | 1005.2 |
| 20260507114617 | 55 | 164 | 10.0 | 22.0 | 0.00 | 0.13 | 0.12 | 92 | 1005.4 |
| 20260507113042 | 55 | 198 | 11.0 | 22.0 | 0.00 | 0.13 | 0.12 | 93 | 1005.1 |
| 20260507111539 | 55 | 164 | 9.0 | 20.0 | 0.00 | 0.13 | 0.12 | 93 | 1005.5 |
| 20260507110039 | 54 | 160 | 10.0 | 23.0 | 0.00 | 0.13 | 0.12 | 93 | 1005.7 |
| 20260507104540 | 54 | 148 | 12.0 | 22.0 | 0.01 | 0.13 | 0.12 | 92 | 1005.9 |
| 20260507103035 | 54 | 207 | 10.0 | 20.0 | 0.03 | 0.13 | 0.12 | 92 | 1006.5 |
| 20260507101546 | 53 | 133 | 8.0 | 23.0 | 0.03 | 0.13 | 0.12 | 92 | 1005.7 |
| 20260507100043 | 53 | 77 | 12.0 | 24.0 | 0.03 | 0.12 | 0.11 | 92 | 1005.2 |
| 20260507094540 | 53 | 168 | 10.0 | 23.0 | 0.03 | 0.11 | 0.11 | 91 | 1006.1 |
| 20260507093042 | 54 | 198 | 13.0 | 22.0 | 0.01 | 0.10 | 0.09 | 89 | 1006.2 |
| 20260507091542 | 54 | 166 | 12.0 | 28.0 | 0.03 | 0.10 | 0.09 | 89 | 1006.0 |
| 20260507090047 | 54 | 162 | 8.0 | 17.0 | 0.03 | 0.09 | 0.08 | 88 | 1006.2 |
| 20260507084554 | 54 | 153 | 8.0 | 15.0 | 0.03 | 0.08 | 0.07 | 88 | 1007.0 |
| 20260507083038 | 54 | 140 | 7.0 | 16.0 | 0.04 | 0.08 | 0.07 | 88 | 1007.1 |
| 20260507081540 | 54 | 136 | 5.0 | 11.0 | 0.04 | 0.07 | 0.06 | 88 | 1007.4 |
| 20260507080048 | 54 | 144 | 4.0 | 9.0 | 0.03 | 0.06 | 0.05 | 88 | 1007.6 |
| 20260507074542 | 53 | 116 | 2.0 | 7.0 | 0.03 | 0.05 | 0.04 | 87 | 1007.8 |
| 20260507073040 | 54 | 151 | 3.0 | 9.0 | 0.01 | 0.03 | 0.03 | 86 | 1008.2 |
| 20260507071538 | 54 | 154 | 4.0 | 11.0 | 0.00 | 0.02 | 0.01 | 85 | 1008.5 |
| 20260507070038 | 53 | 146 | 5.0 | 11.0 | 0.00 | 0.02 | 0.01 | 85 | 1008.9 |
| 20260507064538 | 53 | 153 | 4.0 | 11.0 | 0.01 | 0.02 | 0.01 | 85 | 1009.4 |
| 20260507063038 | 53 | 194 | 4.0 | 10.0 | 0.01 | 0.02 | 0.01 | 85 | 1009.7 |
| 20260507061540 | 53 | 116 | 4.0 | 10.0 | 0.01 | 0.02 | 0.01 | 86 | 1009.5 |
| 20260507060039 | 54 | 144 | 3.0 | 13.0 | 0.00 | 0.01 | 0.00 | 84 | 1009.9 |
| 20260507054539 | 55 | 169 | 8.0 | 13.0 | 0.00 | 0.00 | 0.00 | 83 | 1010.9 |
| 20260507053044 | 55 | 167 | 7.0 | 19.0 | 0.00 | 0.00 | 0.00 | 81 | 1010.6 |
| 20260507051540 | 55 | 181 | 9.0 | 17.0 | 0.00 | 0.00 | 0.00 | 81 | 1011.5 |
| 20260507050038 | 55 | 165 | 11.0 | 18.0 | 0.00 | 0.00 | 0.00 | 81 | 1011.8 |
| 20260507044538 | 55 | 156 | 7.0 | 16.0 | 0.00 | 0.00 | 0.00 | 82 | 1011.5 |
| 20260507043038 | 54 | 193 | 8.0 | 15.0 | 0.00 | 0.00 | 0.00 | 83 | 1011.8 |
| 20260507041539 | 54 | 159 | 7.0 | 13.0 | 0.00 | 0.00 | 0.00 | 83 | 1012.2 |
| 20260507040048 | 54 | 178 | 9.0 | 16.0 | 0.00 | 0.00 | 0.00 | 83 | 1012.4 |
| 20260507034539 | 54 | 160 | 7.0 | 17.0 | 0.00 | 0.00 | 0.00 | 83 | 1012.3 |
| 20260507033039 | 55 | 71 | 6.0 | 15.0 | 0.00 | 0.00 | 0.00 | 82 | 1012.2 |
| 20260507031540 | 55 | 132 | 8.0 | 20.0 | 0.00 | 0.00 | 0.00 | 82 | 1012.5 |
| 20260507030039 | 55 | 122 | 6.0 | 13.0 | 0.00 | 0.00 | 0.00 | 82 | 1012.9 |
| 20260507024538 | 56 | 195 | 6.0 | 12.0 | 0.00 | 0.00 | 0.00 | 81 | 1013.6 |
| 20260507023047 | 56 | 165 | 7.0 | 14.0 | 0.00 | 0.00 | 0.00 | 81 | 1014.1 |
| 20260507021543 | 56 | 179 | 5.0 | 11.0 | 0.00 | 0.00 | 0.00 | 81 | 1014.5 |
| 20260507020104 | 56 | 193 | 6.0 | 13.0 | 0.00 | 0.00 | 0.00 | 81 | 1014.8 |
| 20260507014546 | 56 | 205 | 5.0 | 10.0 | 0.00 | 0.00 | 0.00 | 81 | 1015.0 |
| 20260507013049 | 57 | 143 | 1.0 | 8.0 | 0.00 | 0.00 | 0.00 | 80 | 1015.2 |
| 20260507011538 | 57 | 153 | 5.0 | 11.0 | 0.00 | 0.00 | 0.00 | 80 | 1015.4 |
| 20260507010039 | 57 | 160 | 2.0 | 8.0 | 0.00 | 0.00 | 0.00 | 80 | 1015.5 |
| 20260507004548 | 57 | 144 | 2.0 | 9.0 | 0.00 | 0.00 | 0.00 | 80 | 1015.7 |
| 20260507003044 | 58 | 165 | 3.0 | 11.0 | 0.00 | 0.00 | 0.00 | 79 | 1015.8 |
| 20260507001545 | 58 | 143 | 4.0 | 8.0 | 0.00 | 0.00 | 0.00 | 79 | 1015.7 |
| 20260507000038 | 58 | 162 | 6.0 | 11.0 | 0.00 | 0.00 | 0.00 | 79 | 1015.6 |
| 20260506234543 | 59 | 191 | 5.0 | 9.0 | 0.00 | 0.00 | 0.00 | 79 | 1015.5 |
| 20260506233046 | 60 | 175 | 7.0 | 14.0 | 0.00 | 0.00 | 0.00 | 79 | 1015.3 |
| 20260506231539 | 60 | 169 | 6.0 | 15.0 | 0.00 | 0.00 | 0.00 | 78 | 1015.1 |
| 20260506230046 | 61 | 145 | 5.0 | 13.0 | 0.00 | 0.00 | 0.00 | 78 | 1015.0 |
| 20260506224538 | 62 | 214 | 6.0 | 12.0 | 0.00 | 0.00 | 0.00 | 77 | 1015.2 |
| 20260506223043 | 62 | 234 | 8.0 | 17.0 | 0.00 | 0.00 | 0.00 | 76 | 1015.4 |
| 20260506221539 | 63 | 150 | 6.0 | 20.0 | 0.00 | 0.00 | 0.00 | 76 | 1015.2 |
| 20260506220045 | 63 | 205 | 12.0 | 19.0 | 0.00 | 0.00 | 0.00 | 75 | 1015.1 |
| 20260506214542 | 64 | 174 | 8.0 | 18.0 | 0.00 | 0.00 | 0.00 | 74 | 1014.9 |
| 20260506213051 | 64 | 168 | 9.0 | 25.0 | 0.00 | 0.00 | 0.00 | 73 | 1015.0 |
| 20260506211537 | 65 | 155 | 10.0 | 19.0 | 0.00 | 0.00 | 0.00 | 73 | 1014.8 |
| 20260506210045 | 66 | 156 | 13.0 | 27.0 | 0.00 | 0.00 | 0.00 | 71 | 1014.7 |
| 20260506204541 | 66 | 179 | 11.0 | 22.0 | 0.00 | 0.00 | 0.00 | 70 | 1014.6 |
| 20260506203040 | 67 | 188 | 12.0 | 23.0 | 0.00 | 0.00 | 0.00 | 68 | 1014.5 |
| 20260506201541 | 67 | 181 | 12.0 | 25.0 | 0.00 | 0.00 | 0.00 | 67 | 1014.6 |
| 20260506200038 | 68 | 179 | 13.0 | 28.0 | 0.00 | 0.00 | 0.00 | 67 | 1014.7 |
| 20260506194539 | 69 | 167 | 11.0 | 28.0 | 0.00 | 0.00 | 0.00 | 65 | 1014.8 |
| 20260506193040 | 69 | 131 | 11.0 | 25.0 | 0.00 | 0.00 | 0.00 | 65 | 1014.9 |
| 20260506191541 | 69 | 195 | 11.0 | 23.0 | 0.00 | 0.00 | 0.00 | 62 | 1014.9 |
| 20260506190038 | 71 | 189 | 10.0 | 19.0 | 0.00 | 0.00 | 0.00 | 62 | 1015.1 |